Location: Sungai Bunut
(2.6333°N, 113.7333°E)
Time: 01:27:50
(UTC+00:00)

S-56A Canister/Altair - Pass Details

Date: 05 December 2023
Orbit: 640 x 2488 km, 38.9° (Epoch: 24 February)

Event Time Altitude Azimuth Distance (km) Brightness Sun altitude
Rises 01:23:52 0° 243° (WSW) 4,622 11.3 41.3°
Reaches altitude 10° 01:27:42 10° 251° (WSW) 3,318 10.6 42.1°
Maximum altitude 01:34:43 36° 315° (NW) 1,504 9.0 43.5°
Drops below altitude 10° 01:39:45 10° 21° (NNE) 2,358 10.0 44.6°
Sets 01:42:03 0° 31° (NNE) 3,144 10.6 45.0°
